This is the latest recevied weather packets stored in our database for station/object VY2CRA-4. If no packets are shown the sender has not sent any weather packets the latest 10 day(s).
| Time | Temp. | Humidity | Pressure | Rain* | Wind** | Luminosity | Snow |
|---|---|---|---|---|---|---|---|
| 1787481415 | 20° C | 53% | 1015.5 hPa | 0 mm | - | - | - |
| 1787480213 | 20° C | 53% | 1015.3 hPa | 0 mm | - | - | - |
| 1787479013 | 20° C | 52% | 1015.4 hPa | 0 mm | - | - | - |
| 1787477812 | 20.56° C | 52% | 1015.2 hPa | 0 mm | - | - | - |
| 1787476611 | 20.56° C | 52% | 1015.2 hPa | 0 mm | - | - | - |
| 1787475410 | 20.56° C | 52% | 1015.3 hPa | 0 mm | - | - | - |
| 1787474209 | 20.56° C | 51% | 1015.3 hPa | 0 mm | - | - | - |
| 1787471807 | 20.56° C | 50% | 1015.6 hPa | 0 mm | - | - | - |
| 1787470606 | 20.56° C | 49% | 1015.8 hPa | 0 mm | - | - | - |
| 1787469406 | 20.56° C | 48% | 1016.3 hPa | 0 mm | - | - | - |
| 1787468204 | 20.56° C | 46% | 1016.8 hPa | 0 mm | - | - | - |
| 1787467003 | 21.11° C | 45% | 1016.9 hPa | 0 mm | - | - | - |
| 1787465802 | 21.11° C | 43% | 1017.3 hPa | 0 mm | - | - | - |
| 1787464602 | 21.67° C | 42% | 1017.6 hPa | 0 mm | - | - | - |
| 1787463401 | 21.67° C | 40% | 1017.7 hPa | 0 mm | - | - | - |
| 1787462199 | 22.22° C | 37% | 1017.4 hPa | 0 mm | - | - | - |
| 1787460999 | 22.78° C | 35% | 1017.5 hPa | 0 mm | - | - | - |
| 1787459798 | 22.78° C | 34% | 1017.5 hPa | 0 mm | - | - | - |
| 1787457396 | 22.78° C | 33% | 1017.4 hPa | 0 mm | - | - | - |
| 1787456195 | 22.78° C | 31% | 1017.5 hPa | 0 mm | - | - | - |
| 1787454995 | 23.89° C | 29% | 1017.7 hPa | 0 mm | - | - | - |
| 1787453793 | 24.44° C | 26% | 1017.7 hPa | 0 mm | - | - | - |
| 1787451391 | 24.44° C | 29% | 1017.8 hPa | 0 mm | - | - | - |
| 1787450190 | 25° C | 29% | 1017.9 hPa | 0 mm | - | - | - |
| 1787448990 | 25° C | 28% | 1018.1 hPa | 0 mm | - | - | - |
* Rain since midnight (hover to see other rain measurements)
** Current wind speed in m/s (hover to see current wind gust speed)